User: anonymous   Login
Location: Castifao
(42.5040°N, 9.1124°E)
Time: 19:58:32
(UTC+00:00)
Language:

Cosmos 2082 - Orbit

View from above orbital plane
View from above orbital plane
View from above satellite
View from above satellite

Ground track
Ground track

The orbit data is extracted from the following two-line orbital elements,

1 20624U 90046A   20084.84422198 -.00000019  00000-0  14901-4 0  9995
2 20624  71.0395 257.0297 0017438 282.5507  77.3665 14.14294826540223
Epoch (UTC): 24 March 2020 20:15:40
Eccentricity: 0.0017438
inclination: 71.0395°
perigee height: 832 km
apogee height: 857 km
right ascension of ascending node: 257.0297°
argument of perigee: 282.5507°
revolutions per day: 14.14294826
mean anomaly at epoch: 77.3665°
orbit number at epoch: 54022

The dashed part of the orbit path shows where the satellite is in the earth's shadow,  

DLR